Flag for Germany Weather past 2 weeks in Delmenhorst, Lower Saxony, Germany

Now
50 °F

Clear.


Feels Like: 48 °F
Forecast: 50 / 58 °F
Wind: 5 mph from South

Location: Bremen Airport

Current Time: Apr 25, 2015 at 3:58:14 AM

Latest Report: Apr 25, 2015 at 3:20 AM


Visibility: 10 mi

Pressure: 29.74 "Hg

Humidity: 76%

Dew point: 43 °F

Location of DelmenhorstLocation

Historic Weather in Delmenhorst — Graph

°F

Delmenhorst temperature yesterday

Maximum temperature yesterday: 66 °F (at 4:20 PM)
Minimum temperature yesterday: 41 °F (at 8:20 AM)
Average temperature yesterday: 53 °F

Past Weeks' High & Low Weather Summary

 TemperatureHumidityPressure
High72 °F (Apr 15, 2:50 PM)100% (Apr 10, 2:50 AM)30.42 "Hg (Apr 10, 2:50 AM)
Low36 °F (Apr 14, 1:20 AM)31% (Apr 19, 5:20 PM)29.74 "Hg (Apr 25, 1:50 AM)
Average50 °F72%30.17 "Hg
* Reported Apr 10 2:20 AM — Apr 25 2:20 AM, Delmenhorst, Weather by CustomWeather, © 2015

Note: Actual official high and low records may vary slightly from our data, if they occured in-between our weather recording intervals... More about our weather records

Advertising

Delmenhorst weather history for previous 24 hours

 ConditionsComfort  
Time TempWeatherWind HumidityBarometerVisibility
2:20 AM
Sat, Apr 25
52 °FClear.1 mph67%29.74 "Hg10 mi
1:50 AM54 °FClear.2 mph67%29.74 "Hg10 mi
1:20 AM52 °FClear.2 mph67%29.77 "Hg10 mi
12:50 AM52 °FClear.3 mph72%29.77 "Hg10 mi
12:20 AM50 °FClear.5 mph76%29.77 "Hg10 mi
11:50 PM
Fri, Apr 24
52 °FClear.3 mph67%29.77 "Hg10 mi
11:20 PM54 °FClear.5 mph63%29.77 "Hg10 mi
10:50 PM52 °FClear.5 mph67%29.77 "Hg10 mi
10:20 PM54 °FClear.5 mph63%29.77 "Hg10 mi
9:50 PM55 °FClear.5 mph63%29.80 "Hg10 mi
9:20 PM57 °FSunny.5 mph55%29.80 "Hg10 mi
8:50 PM57 °FSunny.6 mph55%29.80 "Hg10 mi
8:20 PM57 °FSunny.6 mph55%29.80 "Hg10 mi
7:50 PM61 °FSunny.8 mph48%29.80 "Hg10 mi
7:20 PM64 °FSunny.10 mph43%29.80 "Hg10 mi
6:50 PM66 °FSunny.7 mph43%29.80 "Hg10 mi
6:20 PM66 °FSunny.7 mph43%29.80 "Hg10 mi
5:50 PM66 °FSunny.13 mph37%29.80 "Hg10 mi
5:20 PM66 °FSunny.13 mph35%29.83 "Hg10 mi
4:50 PM66 °FPassing clouds.12 mph40%29.83 "HgN/A
4:20 PM66 °FPassing clouds.12 mph37%29.83 "HgN/A
3:50 PM64 °FPassing clouds.12 mph37%29.83 "HgN/A
3:20 PM64 °FPassing clouds.10 mph43%29.86 "HgN/A
2:50 PM64 °FPassing clouds.10 mph46%29.86 "HgN/A
2:20 PM64 °FPartly sunny.9 mph46%29.86 "HgN/A
1:50 PM63 °FPartly sunny.12 mph45%29.89 "HgN/A
1:20 PM63 °FPartly sunny.10 mph45%29.89 "HgN/A
12:50 PM61 °FPartly sunny.8 mph52%29.89 "HgN/A
12:20 PM59 °FPassing clouds.6 mph59%29.89 "HgN/A
11:50 AM57 °FSunny.5 mph67%29.92 "Hg10 mi
11:20 AM55 °FSunny.2 mph72%29.92 "Hg10 mi
10:50 AM52 °FPartly sunny.2 mph88%29.92 "HgN/A
10:20 AM48 °FPartly sunny.3 mph100%29.92 "Hg4 mi
9:50 AM46 °FPartly sunny.2 mph100%29.92 "Hg4 mi
9:20 AM43 °FFog.6 mph100%29.95 "Hg1 mi
8:50 AM43 °FFog.5 mph100%29.95 "Hg1 mi
8:20 AM41 °FFog.3 mph100%29.95 "Hg1 mi
7:50 AM43 °FFog.3 mph100%29.95 "Hg0 mi
7:20 AM43 °FFog.5 mph100%29.95 "Hg0 mi
6:50 AM43 °FFog.2 mph100%29.95 "Hg0 mi
6:20 AM43 °FFog.1 mph100%29.95 "Hg0 mi
5:50 AM43 °FFog.3 mph100%29.95 "Hg0 mi
5:20 AM43 °FFog.2 mph100%29.95 "Hg0 mi
4:50 AM43 °FFog.3 mph100%29.95 "Hg0 mi
4:20 AM43 °FFog.1 mph100%29.95 "Hg1 mi
3:50 AM43 °FFog.3 mph100%29.95 "Hg1 mi
Weather by CustomWeather, © 2015

See weather overviewHow to use our weather pages